Waarnemingen

Advertentie
Mijn weer
Groningen Eelde, Nederland (6280): temperatuur & dauwpunt: 15.10.2017 03:00:00 - 21.10.2017 03:00:00 (CEST)Groningen Eelde, Nederland (6280): temperatuur 5cm: 15.10.2017 03:00:00 - 21.10.2017 03:00:00 (CEST)Groningen Eelde, Nederland (6280): windsnelheid & windstoten: 15.10.2017 03:00:00 - 21.10.2017 03:00:00 (CEST)Groningen Eelde, Nederland (6280): windrichting: 15.10.2017 03:00:00 - 21.10.2017 03:00:00 (CEST)Groningen Eelde, Nederland (6280): luchtdruk: 15.10.2017 03:00:00 - 21.10.2017 03:00:00 (CEST)Groningen Eelde, Nederland (6280): zicht: 15.10.2017 03:00:00 - 21.10.2017 03:00:00 (CEST)Groningen Eelde, Nederland (6280): neerslag: 15.10.2017 03:00:00 - 21.10.2017 03:00:00 (CEST)
Datum & Tijd tt [°C] td [°C] tt 5cm [°C] ff [km/u] ff [kn] fx [km/u] fx [kn] dd ppp [hPa] vv [km] rr [mm]
21.10.2017 03:00:00 11,4 9,8 11,0 22 12 29 16 ZZW 1010,3 10 0,0
21.10.2017 02:00:00 11,9 11,4 11,8 15 8 - - ZZW 1010,1 10 0,2
21.10.2017 01:00:00 12,2 11,8 12,1 22 12 40 21 WZW 1010,0 4,3 0,8
21.10.2017 00:00:00 12,1 11,5 11,8 31 17 47 25 ZW 1009,4 10 2,4
20.10.2017 23:00:00 11,8 11,2 11,6 28 15 - - ZZW 1008,8 6 3,6
20.10.2017 22:00:00 12,1 11,5 12,0 21 11 32 18 ZZW 1008,7 10 0,9
20.10.2017 21:00:00 12,5 11,7 12,3 24 13 40 21 ZZW 1008,5 10 0,1
20.10.2017 20:00:00 12,2 11,8 12,1 18 10 36 19 ZZW 1007,9 10 2,4
20.10.2017 19:00:00 12,3 11,4 12,0 26 14 43 23 Z 1007,4 10 0,9
20.10.2017 18:00:00 12,5 11,3 12,3 24 13 43 23 ZZW 1007,0 10 0,2
20.10.2017 17:00:00 13,1 11,0 12,8 24 13 43 23 Z 1006,8 10 0,0
20.10.2017 16:00:00 13,5 11,1 13,2 29 16 43 23 Z 1006,6 10 0,0
20.10.2017 15:00:00 13,1 11,7 13,2 29 16 47 25 ZZW 1006,5 3,5 0,1
20.10.2017 14:00:00 15,7 10,2 15,5 31 17 43 23 ZZW 1006,2 10 0,0
20.10.2017 13:00:00 15,5 11,3 15,8 26 14 40 21 ZZW 1006,2 10 0,0
20.10.2017 12:00:00 14,7 12,5 14,6 22 12 40 21 ZZW 1006,1 10 0,9
20.10.2017 11:00:00 14,9 13,6 14,7 18 10 32 18 ZZO 1005,7 10 1,3
20.10.2017 10:00:00 15,4 13,1 15,2 18 10 36 19 ZZO 1005,5 10 0,0
20.10.2017 09:00:00 15,2 13,0 14,7 18 10 29 16 ZZO 1005,8 10 0,0
20.10.2017 08:00:00 15,6 12,5 14,8 15 8 25 14 ZZO 1005,3 10 0,0
20.10.2017 07:00:00 15,7 12,8 14,8 15 8 25 14 Z 1005,8 10 0,0
20.10.2017 06:00:00 15,4 12,9 14,6 16 9 29 16 ZZO 1006,0 10 0,0
20.10.2017 05:00:00 16,1 12,7 15,5 22 12 36 19 ZZO 1006,3 10 0,0
20.10.2017 04:00:00 15,6 12,6 14,8 13 7 18 10 ZZO 1006,7 10 0,0
20.10.2017 03:00:00 16,0 12,8 15,1 11 6 18 10 Z 1007,5 10 0,0
20.10.2017 02:00:00 15,5 12,8 14,4 11 6 18 10 ZZO 1007,4 10 0,0
20.10.2017 01:00:00 14,8 12,6 13,6 9 5 14 8 ZO 1007,3 10 0,0
20.10.2017 00:00:00 13,8 12,2 12,6 5 3 14 8 OZO 1007,7 9 0,0
19.10.2017 23:00:00 14,3 12,3 13,2 8 4 14 8 OZO 1008,1 8 0,0
19.10.2017 22:00:00 14,4 12,7 13,6 9 5 14 8 OZO 1008,2 8 0,0
19.10.2017 21:00:00 15,0 13,4 14,1 11 6 18 10 OZO 1008,7 6 0,0
19.10.2017 20:00:00 15,2 13,5 14,2 9 5 18 10 O 1008,9 7 0,0
19.10.2017 19:00:00 16,4 13,7 15,4 9 5 18 10 OZO 1008,9 10 0,0
19.10.2017 18:00:00 17,8 14,1 16,8 11 6 18 10 ZO 1008,8 10 0,0
19.10.2017 17:00:00 19,1 14,5 19,0 9 5 18 10 OZO 1008,8 10 0,0
19.10.2017 16:00:00 19,7 14,3 20,2 9 5 18 10 ZO 1009,4 10 0,0
19.10.2017 15:00:00 19,4 14,3 19,8 11 6 22 12 ZZO 1010,0 10 0,0
19.10.2017 14:00:00 18,5 14,5 19,4 11 6 18 10 ZZO 1010,4 10 0,0
19.10.2017 13:00:00 17,7 14,8 18,5 11 6 22 12 ZZO 1011,4 8 0,0
19.10.2017 12:00:00 16,2 14,4 17,0 8 4 14 8 ZO 1011,5 5 0,0
19.10.2017 11:00:00 13,4 13,4 13,8 5 3 14 8 ZO 1011,5 1,2 0,0
19.10.2017 10:00:00 12,5 12,5 12,8 9 5 14 8 ZZO 1011,6 0,2 0,0
19.10.2017 09:00:00 12,3 12,3 12,4 5 3 11 6 O 1011,5 0,2 0,0
19.10.2017 08:00:00 12,3 12,3 12,1 8 4 11 6 O 1011,4 0,5 0,0
19.10.2017 07:00:00 12,6 12,6 12,4 5 3 11 6 OZO 1011,5 1,7 0,0
19.10.2017 06:00:00 12,7 12,7 12,6 5 3 11 6 ZO 1011,7 1,4 0,0
19.10.2017 05:00:00 12,8 12,8 12,7 5 3 11 6 ZO 1011,8 0,8 0,0
19.10.2017 04:00:00 12,7 12,7 12,6 5 3 11 6 OZO 1011,9 0,5 0,0
19.10.2017 03:00:00 12,5 12,5 12,4 5 3 11 6 OZO 1012,2 0,6 0,0
19.10.2017 02:00:00 12,5 12,5 12,5 5 3 14 8 ZO 1012,5 0,5 0,0
19.10.2017 01:00:00 12,4 12,4 12,4 8 4 14 8 O 1012,5 0,3 0,0
19.10.2017 00:00:00 12,1 11,9 11,9 5 3 14 8 OZO 1012,7 2,3 0,0
18.10.2017 23:00:00 11,4 10,7 10,5 8 4 11 6 O 1013,1 9 0,0
18.10.2017 22:00:00 11,7 10,7 9,9 9 5 14 8 O 1013,1 10 0,0
18.10.2017 21:00:00 11,1 10,3 10,1 9 5 14 8 ONO 1013,2 10 0,0
18.10.2017 20:00:00 11,9 10,9 9,8 8 4 11 6 ONO 1013,2 10 0,0
18.10.2017 19:00:00 12,0 10,7 10,6 5 3 11 6 ONO 1013,1 10 0,0
18.10.2017 18:00:00 14,1 11,0 13,3 8 4 14 8 ONO 1012,9 10 0,0
18.10.2017 17:00:00 14,9 11,9 14,7 13 7 18 10 NO 1013,1 10 0,0
18.10.2017 16:00:00 15,6 12,1 15,8 13 7 18 10 NO 1013,4 10 0,0
18.10.2017 15:00:00 15,6 12,1 16,3 11 6 18 10 NO 1013,7 10 0,0
18.10.2017 14:00:00 15,0 11,7 16,2 9 5 18 10 ONO 1014,3 10 0,0
18.10.2017 13:00:00 13,6 11,9 13,8 9 5 - - ONO 1014,6 10 -
18.10.2017 12:00:00 12,4 11,1 12,6 5 3 11 6 NO 1014,7 10 0,0
18.10.2017 11:00:00 11,6 11,0 11,9 4 2 11 6 - 1015,1 9 0,0
18.10.2017 10:00:00 10,1 9,9 10,5 2 1 - - - 1015,3 7 -
18.10.2017 09:00:00 7,3 7,3 4,8 2 1 7 4 - 1015,2 0,6 0,0
18.10.2017 08:00:00 6,4 6,4 4,2 4 2 7 4 - 1015,1 0,4 0,0
18.10.2017 07:00:00 6,0 6,0 4,2 4 2 7 4 - 1015,5 5 0,0
18.10.2017 06:00:00 5,9 5,9 3,6 4 2 11 6 Z 1015,8 0,5 0,0
18.10.2017 05:00:00 6,0 5,8 4,7 4 2 14 8 - 1016,0 6 0,0
18.10.2017 04:00:00 6,4 6,3 3,8 5 3 11 6 Z 1016,5 3,7 0,0
18.10.2017 03:00:00 7,4 7,4 3,7 2 1 11 6 Z 1016,8 0,5 0,0
18.10.2017 02:00:00 8,1 7,9 5,4 9 5 11 6 ZZW 1017,0 7 0,0
18.10.2017 01:00:00 9,1 8,9 7,5 9 5 14 8 ZZW 1017,4 8 0,0
18.10.2017 00:00:00 8,8 8,8 5,4 5 3 11 6 ZZW 1017,6 9 0,0
17.10.2017 23:00:00 10,0 9,4 9,1 9 5 18 10 ZW 1017,7 10 0,0
17.10.2017 22:00:00 10,7 9,9 9,5 11 6 18 10 ZW 1017,7 10 0,0
17.10.2017 21:00:00 11,2 10,2 10,3 13 7 18 10 ZZW 1017,6 10 0,0
17.10.2017 20:00:00 11,5 10,5 10,8 15 8 22 12 ZZW 1018,0 10 0,0
17.10.2017 19:00:00 12,6 11,1 12,0 16 9 22 12 ZW 1017,6 10 0,0
17.10.2017 18:00:00 13,4 11,5 12,9 18 10 29 16 ZZW 1017,8 10 0,0
17.10.2017 17:00:00 14,0 11,4 13,7 21 11 29 16 ZW 1018,2 10 0,0
17.10.2017 16:00:00 14,6 10,7 14,4 24 13 40 21 ZW 1018,6 10 0,0
17.10.2017 15:00:00 14,9 10,8 14,9 26 14 40 21 ZW 1018,9 10 0,0
17.10.2017 14:00:00 15,2 10,6 15,3 31 17 47 25 ZW 1019,3 10 0,0
17.10.2017 13:00:00 15,3 10,8 15,5 26 14 43 23 ZW 1019,8 10 0,0
17.10.2017 12:00:00 14,9 11,5 15,0 26 14 40 21 ZW 1020,0 10 0,0
17.10.2017 11:00:00 14,1 11,1 14,0 22 12 29 16 ZW 1019,8 10 0,0
17.10.2017 10:00:00 12,7 10,8 12,3 15 8 22 12 ZZW 1019,9 10 0,0
17.10.2017 09:00:00 12,1 10,3 11,2 15 8 22 12 ZZW 1019,4 10 0,0
17.10.2017 08:00:00 12,1 10,2 11,2 15 8 25 14 ZZW 1019,1 10 0,0
17.10.2017 07:00:00 12,8 10,2 12,0 16 9 25 14 ZZW 1018,9 10 0,0
17.10.2017 06:00:00 13,1 10,2 12,4 22 12 32 18 ZW 1018,9 10 0,0
17.10.2017 05:00:00 14,3 10,4 13,5 21 11 32 18 ZW 1018,7 10 0,0
17.10.2017 04:00:00 15,0 11,4 14,1 21 11 32 18 ZW 1018,8 10 0,0
17.10.2017 03:00:00 16,5 12,7 15,6 22 12 32 18 WZW 1018,7 10 0,0
17.10.2017 02:00:00 16,5 14,6 15,5 15 8 25 14 ZW 1018,7 10 0,0
17.10.2017 01:00:00 17,1 14,7 16,0 13 7 25 14 ZZW 1018,4 10 0,0
17.10.2017 00:00:00 18,5 14,9 17,6 21 11 32 18 ZZW 1017,9 10 0,0
16.10.2017 23:00:00 19,1 15,1 18,0 21 11 29 16 Z 1017,9 10 0,0
16.10.2017 22:00:00 19,2 15,3 17,9 15 8 29 16 Z 1017,7 10 0,0
16.10.2017 21:00:00 19,8 15,8 18,6 18 10 29 16 Z 1017,6 10 0,0
16.10.2017 20:00:00 19,7 16,2 18,5 18 10 29 16 Z 1018,0 10 0,0
16.10.2017 19:00:00 19,5 16,2 18,4 13 7 22 12 Z 1018,1 10 0,0
16.10.2017 18:00:00 20,4 16,7 19,6 13 7 18 10 Z 1018,1 10 0,0
16.10.2017 17:00:00 21,7 16,4 21,2 15 8 22 12 Z 1018,6 10 0,0
16.10.2017 16:00:00 22,6 16,7 22,2 13 7 22 12 Z 1018,9 10 0,0
16.10.2017 15:00:00 21,9 16,6 21,9 15 8 22 12 Z 1019,6 10 0,0
16.10.2017 14:00:00 22,0 16,5 22,2 15 8 25 14 ZZW 1020,0 10 0,0
16.10.2017 13:00:00 21,0 15,9 21,2 13 7 22 12 ZZW 1020,1 10 0,0
16.10.2017 12:00:00 19,3 15,7 18,7 16 9 29 16 ZZW 1020,0 10 0,0
16.10.2017 11:00:00 17,5 14,6 17,0 16 9 25 14 ZZW 1019,7 10 0,0
16.10.2017 10:00:00 15,3 13,8 14,3 13 7 22 12 ZZW 1019,4 10 0,0
16.10.2017 09:00:00 13,5 12,8 11,7 8 4 18 10 Z 1019,4 8 0,0
16.10.2017 08:00:00 13,2 12,5 11,8 9 5 14 8 Z 1019,1 8 0,0
16.10.2017 07:00:00 13,7 12,7 12,6 11 6 18 10 ZZW 1019,2 10 0,0
16.10.2017 06:00:00 13,7 12,5 12,1 11 6 18 10 ZZW 1019,2 10 0,0
16.10.2017 05:00:00 13,8 12,4 12,2 13 7 22 12 ZZW 1019,3 10 0,0
16.10.2017 04:00:00 13,8 12,4 12,3 13 7 18 10 ZZW 1019,3 10 0,0
16.10.2017 03:00:00 14,5 12,7 12,8 15 8 22 12 ZZW 1019,5 10 0,0
16.10.2017 02:00:00 14,7 12,7 13,1 15 8 22 12 ZZW 1019,4 10 0,0
16.10.2017 01:00:00 14,7 12,9 12,8 13 7 22 12 ZZW 1019,3 10 0,0
16.10.2017 00:00:00 16,0 13,3 13,9 15 8 25 14 ZZW 1019,4 10 0,0
15.10.2017 23:00:00 16,3 13,4 14,0 15 8 22 12 ZZW 1019,3 10 0,0
15.10.2017 22:00:00 16,7 13,3 14,3 13 7 22 12 Z 1019,1 10 0,0
15.10.2017 21:00:00 17,4 13,4 15,2 16 9 25 14 Z 1019,0 10 0,0
15.10.2017 20:00:00 18,2 14,0 15,6 15 8 25 14 Z 1019,1 10 0,0
15.10.2017 19:00:00 18,1 14,3 15,6 13 7 22 12 Z 1018,9 10 0,0
15.10.2017 18:00:00 19,5 14,4 17,3 13 7 22 12 Z 1019,0 10 0,0
15.10.2017 17:00:00 21,2 14,5 20,4 13 7 29 16 ZZW 1019,4 10 0,0
15.10.2017 16:00:00 21,9 14,7 21,5 22 12 29 16 Z 1019,7 10 0,0
15.10.2017 15:00:00 21,3 14,3 21,9 18 10 32 18 Z 1020,1 10 0,0
15.10.2017 14:00:00 20,4 14,4 21,1 21 11 32 18 Z 1020,7 10 0,0
15.10.2017 13:00:00 19,4 14,6 20,0 18 10 29 16 Z 1021,4 10 0,0
15.10.2017 12:00:00 17,9 14,7 18,0 16 9 25 14 Z 1021,8 10 0,0
15.10.2017 11:00:00 16,3 14,5 16,2 13 7 22 12 Z 1022,4 8 0,0
15.10.2017 10:00:00 14,6 13,8 14,0 13 7 18 10 Z 1022,7 4,2 0,0
15.10.2017 09:00:00 13,0 12,7 11,9 11 6 18 10 ZZO 1023,1 3,4 0,0
15.10.2017 08:00:00 12,0 12,0 10,4 9 5 18 10 ZZO 1023,2 3,0 0,0
15.10.2017 07:00:00 11,2 11,2 7,5 5 3 11 6 Z 1023,6 1,9 0,0
15.10.2017 06:00:00 10,1 10,1 7,5 5 3 14 8 Z 1023,6 0,5 0,0
15.10.2017 05:00:00 11,0 10,9 6,7 8 4 11 6 Z 1023,8 2,3 0,0
15.10.2017 04:00:00 9,5 9,4 6,9 5 3 11 6 Z 1024,2 0,6 0,0
15.10.2017 03:00:00 10,6 10,3 7,3 5 3 11 6 Z 1024,2 0,4 0,0

tt = temperatuur
td = dauwpunt
tt 5cm = temperatuur 5cm
ff = windsnelheid
fx = windstoten
dd = windrichting
ppp = luchtdruk
vv = zicht
rr = neerslag

Weerstations in de omgeving